[[{"header":{"parameterUnit":"m.s-1","parameterCategory":1,"la1":30.2991,"la2":30.254,"lo1":-89.0895,"lo2":-89.0444,"dy":0.0017,"dx":0.0017,"nx":28,"ny":28,"refTime":"2024-07-15T21:00:00:Z","depth":0,"parameterNumber":2,"parameterNumberName":"U-component_of_WINDS"},"data":[0,0,0,0,0,0,0,0,0,0,0,0,0,0,0,0,0,0,0,0,0,0,0,0,0,0,0,0,0,0,0,0,0,0,0,0,0,0,0,0,0,0,0,0,0,0,0,0,0,0,0,0,0,0,0,0,0,0,3.1344,3.1344,0,3.135,3.135,3.135,3.1291,3.1289,3.1288,3.1286,3.1292,3.1294,3.1295,0,0,0,0,0,0,0,0,0,0,0,0,0,3.1279,3.1281,3.1344,3.1344,3.1344,3.135,3.135,3.135,3.1291,3.1289,3.1287,3.1285,3.1292,3.1294,3.1296,0,0,0,0,0,0,0,0,0,0,0,0,0,3.1299,3.1281,3.1344,3.1316,3.1313,3.135,3.135,3.1351,3.1292,3.1289,3.1287,3.1284,3.1291,3.1293,3.1296,3.1361,0,0,3.1304,3.1305,0,0,0,0,0,0,0,0,3.1298,3.1301,3.132,3.1318,3.1315,3.1317,3.133,3.1354,3.1292,3.13,3.1286,3.1283,3.1302,3.1304,3.131,3.1361,3.1361,3.1304,3.1305,3.1306,3.1307,0,0,0,0,0,0,0,3.1297,3.1301,3.1347,3.132,3.1317,3.1302,3.1302,3.1334,3.1315,3.1299,3.1295,3.1296,3.1301,3.1308,3.131,3.1361,3.1304,3.1306,3.1308,3.1309,3.1462,3.1464,0,0,0,0,0,0,3.1299,3.13,3.1346,3.1347,3.13,3.1305,3.1305,3.1319,3.1314,3.1311,3.1298,3.1293,3.1305,3.1307,3.131,3.1383,3.1306,3.1309,3.131,3.1459,3.1463,3.1465,0,0,0,0,0,0,3.1298,3.1304,3.1346,3.1322,3.1326,3.1309,3.1325,3.132,3.1328,3.1314,3.131,3.1309,3.1303,3.1307,3.1348,3.1382,3.131,3.1312,3.1456,3.146,3.1464,3.153,0,0,0,0,0,0,3.1296,3.1304,3.1329,3.1323,3.1328,3.1384,3.1327,3.1322,3.1332,3.1326,3.1323,3.1321,3.1302,3.1344,3.135,3.1384,3.1314,3.1453,3.1458,3.1463,3.1525,3.1536,3.1545,0,0,0,0,0,3.1294,3.1348,3.1331,3.1336,3.1359,3.1387,3.1389,3.1366,3.1336,3.136,3.135,3.1321,3.1378,3.1349,3.1355,3.1391,3.1451,3.1457,3.1462,3.152,3.1534,3.1545,0,0,0,0,0,0,3.1359,3.1347,3.1327,3.1381,3.1385,3.1377,3.1406,3.1382,3.1395,3.1388,3.1359,3.1359,3.1405,3.1402,3.137,3.1452,3.1409,3.1416,3.1451,3.1464,3.1474,3.1472,3.1316,0,0,0,0,0,3.1379,3.1403,3.1392,3.144,3.1443,3.1425,3.1436,3.1418,3.1421,3.1422,3.1416,3.142,3.1439,3.1452,3.1468,3.1525,3.1522,3.1553,3.1563,3.1571,3.1577,3.1603,3.1616,3.1484,3.1484,3.1484,0,0,3.1422,3.1418,3.1435,3.1453,3.1454,3.1478,3.1427,3.1455,3.1472,3.1427,3.1464,3.146,3.1462,3.1511,3.1532,3.151,3.1613,3.1579,3.1585,3.1586,3.1611,3.1623,3.1634,3.1488,3.1487,3.1487,0,0,3.1511,3.1512,3.155,3.1552,3.1554,3.1541,3.1551,3.1546,3.1541,3.1578,3.1543,3.1564,3.1597,3.1599,3.1605,3.1693,3.1664,3.1699,3.1751,3.1778,3.1788,3.1797,3.1825,3.1836,3.1706,3.1706,3.1706,0,3.1563,3.1598,3.1574,3.1603,3.161,3.1571,3.1608,3.1611,3.1619,3.1625,3.1601,3.164,3.1639,3.1686,3.1707,3.1714,3.1722,3.1698,3.1789,3.1797,3.1805,3.1832,3.1843,3.171,3.1709,3.1709,3.1708,0,3.166,3.1685,3.1716,3.1723,3.1734,3.1768,3.1748,3.1762,3.1743,3.1732,3.177,3.1767,3.1781,3.1792,3.1774,3.1835,3.1821,3.1794,3.175,3.1822,3.1846,3.1856,3.1715,3.1714,3.1713,3.1712,0,0,3.1789,3.1781,3.1792,3.1793,3.1792,3.181,3.1842,3.1855,3.1866,3.1873,3.1897,3.1926,3.1899,3.1905,3.1888,3.1911,3.1977,3.188,3.188,3.1895,3.204,3.2058,3.2071,3.1959,3.1961,3.1963,3.2039,0,3.1872,3.1924,3.1902,3.1956,3.1977,3.1939,3.1966,3.1967,3.1958,3.1974,3.1965,3.1984,3.195,3.1952,3.1974,3.1964,3.2005,3.1959,3.1979,3.198,3.1976,3.2084,3.2103,3.2175,3.2048,3.205,3.2051,0,3.1976,3.1985,3.2041,3.2033,3.2041,3.2065,3.2074,3.2091,3.2091,3.2083,3.2089,3.2065,3.2094,3.2053,3.2091,3.206,3.2067,3.2064,3.2066,3.2064,3.2018,3.2081,3.2198,3.2207,3.2066,3.2065,3.2064,0,3.2059,3.2086,3.2121,3.2124,3.2117,3.2135,3.2133,3.2131,3.2139,3.2147,3.2152,3.2164,3.217,3.2179,3.2159,3.2131,3.2199,3.2156,3.219,3.2191,3.2204,3.2202,3.2319,3.2215,3.2215,3.2214,3.2214,0,3.2152,3.2187,3.2158,3.218,3.2217,3.2191,3.2229,3.2222,3.2221,3.224,3.2209,3.2227,3.2201,3.2217,3.2202,3.2233,3.2238,3.223,3.2225,3.2231,3.2231,3.2232,3.2226,3.2217,3.2217,3.2216,3.2215,0,3.225,3.2233,3.2268,3.2258,3.2257,3.2284,3.2275,3.2294,3.2283,3.2307,3.2311,3.2294,3.231,3.2292,3.2308,3.2297,3.2339,3.2329,3.2338,3.2334,3.2367,3.2363,3.2486,3.25,3.239,3.2391,3.2392,0,3.2309,3.2334,3.2326,3.2336,3.2336,3.2353,3.2361,3.2337,3.2346,3.2348,3.2366,3.238,3.2389,3.2417,3.2406,3.2417,3.2404,3.2447,3.2405,3.241,3.24,3.2397,3.2398,3.2454,3.2455,3.2456,3.2457,0,3.2414,3.2403,3.2416,3.2424,3.2434,3.2441,3.2444,3.2454,3.2429,3.2441,3.2457,3.2465,3.248,3.2493,3.2501,3.2498,3.2473,3.2471,3.2478,3.2483,3.2486,3.2481,3.2357,3.2467,3.2466,3.2465,3.2465,3.2464,3.2491,3.251,3.2507,3.2521,3.2521,3.2525,3.2541,3.2531,3.2544,3.2553,3.2539,3.2559,3.2557,3.2564,3.2564,3.2579,3.256,3.2573,3.2575,3.2577,3.2581,3.2487,3.2581,3.258,3.258,3.258,3.258,0,3.2591,3.2586,3.26,3.2605,3.2615,3.2592,3.2594,3.2604,3.2621,3.2622,3.2631,3.2648,3.2661,3.265,3.266,3.2673,3.2662,3.2676,3.2673,3.2672,3.2598,3.2589,3.2685,3.2685,3.2685,3.2685,3.2685,3.2685,3.2644,3.2674,3.2663,3.2692,3.2688,3.2705,3.2708,3.2711,3.2711,3.2731,3.2741,3.2734,3.2729,3.2738,3.2748,3.2745,3.2748,3.2766,3.2758,3.2689,3.2678,3.2668,3.2659,3.2768,3.2768,3.283,3.2831,3.2831]},{"header":{"parameterUnit":"m.s-1","parameterCategory":1,"la1":30.2991,"la2":30.254,"lo1":-89.0895,"lo2":-89.0444,"dy":0.0017,"dx":0.0017,"nx":28,"ny":28,"refTime":"2024-07-15T21:00:00:Z","depth":0,"parameterNumber":3,"parameterNumberName":"V-component_of_WINDS"},"data":[0,0,0,0,0,0,0,0,0,0,0,0,0,0,0,0,0,0,0,0,0,0,0,0,0,0,0,0,0,0,0,0,0,0,0,0,0,0,0,0,0,0,0,0,0,0,0,0,0,0,0,0,0,0,0,0,0,0,4.86,4.8601,0,4.8756,4.8758,4.876,4.8762,4.876,4.8758,4.8756,4.8912,4.8918,4.8924,0,0,0,0,0,0,0,0,0,0,0,0,0,4.8297,4.8302,4.8599,4.8601,4.8603,4.8756,4.8758,4.876,4.8762,4.8759,4.8757,4.8755,4.891,4.8917,4.8924,0,0,0,0,0,0,0,0,0,0,0,0,0,4.8438,4.8304,4.8599,4.8623,4.8626,4.8755,4.8758,4.8761,4.8762,4.8759,4.8756,4.8754,4.8908,4.8917,4.8925,4.904,0,0,4.8953,4.8957,0,0,0,0,0,0,0,0,4.843,4.8449,4.8617,4.8621,4.8626,4.8736,4.8709,4.8854,4.8763,4.8711,4.8756,4.8752,4.8856,4.8869,4.8905,4.9047,4.9054,4.8954,4.8959,4.8963,4.8966,0,0,0,0,0,0,0,4.842,4.8443,4.8661,4.862,4.8625,4.8624,4.8641,4.8736,4.8798,4.8715,4.8716,4.8734,4.8857,4.8896,4.8908,4.9056,4.8953,4.8961,4.8967,4.8971,4.9298,4.9301,0,0,0,0,0,0,4.8406,4.8434,4.8656,4.8666,4.8519,4.8632,4.865,4.8704,4.8797,4.8808,4.8737,4.8734,4.8882,4.8898,4.8914,4.9052,4.8963,4.8971,4.8977,4.9295,4.9299,4.9302,0,0,0,0,0,0,4.84,4.8426,4.865,4.855,4.8579,4.864,4.87,4.8708,4.8747,4.8813,4.8824,4.8765,4.888,4.8901,4.9008,4.9058,4.8975,4.8984,4.9291,4.9296,4.9301,4.9331,0,0,0,0,0,0,4.8391,4.8424,4.847,4.8552,4.8584,4.8744,4.8703,4.8714,4.8763,4.8761,4.8842,4.8853,4.888,4.8995,4.9017,4.9069,4.8991,4.9287,4.9293,4.9299,4.9326,4.9337,4.9346,0,0,0,0,0,4.838,4.8472,4.8472,4.8499,4.8643,4.8747,4.8765,4.8795,4.8767,4.8812,4.8854,4.8851,4.9049,4.9006,4.9031,4.9086,4.9284,4.9291,4.9299,4.9322,4.9335,4.9346,0,0,0,0,0,0,4.8393,4.8483,4.8484,4.8605,4.8668,4.8747,4.8805,4.8808,4.8879,4.8874,4.8907,4.8925,4.9031,4.907,4.902,4.92,4.9163,4.9176,4.9172,4.9184,4.9194,4.9182,4.8998,0,0,0,0,0,4.841,4.8488,4.8562,4.8661,4.8693,4.8743,4.879,4.8807,4.8874,4.89,4.895,4.9013,4.909,4.9139,4.9213,4.9332,4.9348,4.9382,4.9391,4.9399,4.9409,4.9472,4.9488,4.9327,4.9327,4.9327,0,0,4.8446,4.8504,4.8552,4.8665,4.8716,4.8795,4.8766,4.8851,4.8909,4.8912,4.9017,4.9055,4.9128,4.9241,4.9293,4.9276,4.9458,4.9409,4.9414,4.9421,4.9482,4.9497,4.951,4.9332,4.9331,4.933,0,0,4.855,4.8604,4.8691,4.8743,4.8821,4.8853,4.8874,4.8952,4.8978,4.9084,4.9088,4.9156,4.9288,4.9338,4.9382,4.9503,4.9502,4.9527,4.9577,4.9638,4.9651,4.9662,4.9704,4.9719,4.9537,4.9537,4.9537,0,4.8584,4.8704,4.8735,4.882,4.8869,4.8877,4.8964,4.9012,4.911,4.9142,4.9122,4.9286,4.9336,4.9459,4.9489,4.9524,4.9547,4.9517,4.9647,4.9659,4.967,4.971,4.9725,4.9539,4.9539,4.9539,4.9539,0,4.8741,4.8824,4.8885,4.898,4.9035,4.9121,4.9163,4.9216,4.9227,4.9262,4.9367,4.9427,4.9512,4.9543,4.9555,4.9668,4.9654,4.964,4.9603,4.9687,4.9725,4.974,4.9543,4.9542,4.9541,4.9541,0,0,4.8858,4.8968,4.899,4.9032,4.9118,4.9182,4.9266,4.9351,4.9394,4.9461,4.9531,4.9642,4.9629,4.9677,4.9695,4.9749,4.9839,4.9728,4.973,4.9745,4.9964,4.9973,4.999,4.9839,4.9842,4.9845,4.9957,0,4.8971,4.9124,4.9153,4.9285,4.936,4.9368,4.9441,4.9501,4.9535,4.9602,4.9639,4.9716,4.9694,4.9723,4.9777,4.9817,4.9883,4.9809,4.9903,4.9906,4.9883,5.0011,5.0021,5.0125,4.9972,4.9975,4.9977,0,4.9123,4.9194,4.9333,4.9407,4.9439,4.9505,4.9584,4.9649,4.9716,4.9736,4.979,4.9802,4.9888,4.9847,4.9965,4.9914,4.9954,4.9979,4.9984,4.9992,4.9946,5.0021,5.0159,5.0174,5.0001,4.9999,4.9997,0,4.9192,4.9322,4.9422,4.9458,4.9547,4.9593,4.9631,4.9695,4.9743,4.9811,4.9842,4.9919,4.9961,5.0019,5.0051,5.0018,5.0165,5.0128,5.0183,5.0182,5.0213,5.021,5.0357,5.0241,5.0241,5.024,5.024,0,4.9314,4.9398,4.9454,4.9515,4.9609,4.9641,4.9733,4.9771,4.9827,4.9894,4.9905,4.9968,5.0006,5.0073,5.0098,5.0191,5.021,5.0227,5.0232,5.0226,5.0223,5.0251,5.0244,5.0245,5.0244,5.0243,5.0242,0,4.9407,4.9448,4.9557,4.9632,4.9653,4.9718,4.9782,4.984,4.9873,4.9958,4.998,5.0032,5.0111,5.0148,5.0247,5.0263,5.0368,5.0369,5.0346,5.0347,5.04,5.0394,5.0569,5.0592,5.0462,5.0463,5.0464,0,4.9482,4.9547,4.9629,4.9675,4.9715,4.979,4.9839,4.9872,4.9922,5.0002,5.005,5.013,5.0196,5.0323,5.0368,5.0443,5.0445,5.0501,5.0456,5.0446,5.0443,5.0439,5.0444,5.0508,5.051,5.0511,5.0512,0,4.9609,4.9625,4.9696,4.9774,4.9832,4.9895,4.9956,4.9993,5.0036,5.0091,5.0173,5.0224,5.0324,5.0403,5.0481,5.0519,5.0522,5.0525,5.0542,5.0535,5.0518,5.0526,5.0366,5.0521,5.052,5.0519,5.0519,5.0519,4.9694,4.9751,4.9817,4.9895,4.9945,5.0002,5.006,5.01,5.0169,5.0254,5.0269,5.0356,5.0418,5.0523,5.0564,5.063,5.0617,5.0641,5.0647,5.0652,5.0654,5.0508,5.0645,5.0644,5.0644,5.0644,5.0644,0,4.982,4.9862,4.9934,5.0019,5.008,5.0079,5.0146,5.0196,5.0273,5.0332,5.0396,5.0489,5.0565,5.0616,5.0692,5.0736,5.0739,5.0754,5.0751,5.0759,5.0663,5.064,5.075,5.075,5.075,5.075,5.075,5.075,4.9892,4.9989,5.0013,5.0133,5.0175,5.0261,5.0299,5.035,5.0397,5.05,5.0564,5.0597,5.0652,5.0732,5.0801,5.0814,5.084,5.0856,5.0868,5.0777,5.0766,5.0755,5.0734,5.0862,5.0862,5.0959,5.096,5.096]}]]